This demonstration page uses our WeatherBlox Daily Observations layout. Learn more.

38.89511, -77.03637

Hourly Observations for September 6, 2016

Temp ( °F °C ) Dew Point ( °F °C ) Humidity (%) Winds ( mph kmh ) Pressure ( in mb ) Visibility ( mi km ) Precip ( " mm )
12:52 am 00:52 Partly Cloudy 75 23.9 64 17.8 69 69 Calm 30.07 1018 10 16.0934 0 0
1:52 am 01:52 Mostly Cloudy 76 24.4 58 14.4 54 54 NW 8 13 30.06 1018 10 16.0934 0 0
2:52 am 02:52 Mostly Cloudy 74 23.3 59 15 60 60 NNW 9 15 30.06 1018 10 16.0934 0 0
3:52 am 03:52 Mostly Clear 74 23.3 58 14.4 57 57 NNW 12 19 30.06 1018 10 16.0934 0 0
4:52 am 04:52 Mostly Clear 72 22.2 59 15 64 64 NNW 8 13 30.06 1018 10 16.0934 0 0
5:52 am 05:52 Mostly Clear 72 22.2 59 15 64 64 NNW 12 19 30.08 1019 10 16.0934 0 0
6:52 am 06:52 Mostly Sunny 71 21.7 59 15 66 66 NNW 13 20 30.09 1019 10 16.0934 0 0
7:52 am 07:52 Mostly Sunny 75 23.9 59 15 58 58 NNW 13 20 30.1 1019 10 16.0934 0 0
8:52 am 08:52 Mostly Sunny 78 25.6 60 15.6 54 54 NNW 12 19 30.1 1019 10 16.0934 0 0
9:52 am 09:52 Sunny 82 27.8 61 16.1 49 49 NW 12 19 30.1 1019 10 16.0934 0 0
10:52 am 10:52 Sunny 84 28.9 61 16.1 46 46 NNW 12 19 30.09 1019 10 16.0934 0 0
11:52 am 11:52 Sunny 86 30 61 16.1 43 43 NW 12 19 30.08 1019 10 16.0934 0 0
12:52 pm 12:52 Mostly Sunny 88 31.1 60 15.6 39 39 NW 16 26 30.06 1018 10 16.0934 0 0
1:52 pm 13:52 Mostly Sunny 90 32.2 60 15.6 37 37 NW 16 26 30.04 1017 10 16.0934 0 0
2:52 pm 14:52 Mostly Sunny 93 33.9 60 15.6 33 33 NW 17 28 30.01 1016 10 16.0934 0 0
3:52 pm 15:52 Partly Cloudy 93 33.9 60 15.6 33 33 NNW 22 35 30.01 1016 10 16.0934 0 0
4:52 pm 16:52 Partly Cloudy 93 33.9 59 15 32 32 NNW 21 33 29.99 1016 10 16.0934 0 0
5:52 pm 17:52 Mostly Sunny 92 33.3 59 15 33 33 NNW 17 28 29.99 1016 10 16.0934 0 0
6:52 pm 18:52 Mostly Sunny 89 31.7 60 15.6 38 38 N 14 22 29.99 1016 10 16.0934 0 0
7:52 pm 19:52 Mostly Clear 86 30 60 15.6 42 42 N 9 15 30 1016 10 16.0934 0 0
8:52 pm 20:52 Clear 85 29.4 60 15.6 43 43 NNW 7 11 30.01 1016 10 16.0934 0 0
9:52 pm 21:52 Mostly Clear 85 29.4 60 15.6 43 43 NW 7 11 30.02 1017 10 16.0934 0 0
10:52 pm 22:52 Partly Cloudy 82 27.8 64 17.8 55 55 N 5 7 30.03 1017 10 16.0934 0 0
11:52 pm 23:52 Partly Cloudy 79 26.1 62 16.7 56 56 NNW 5 7 30.03 1017 10 16.0934 0 0

Powered by AerisWeather